RYR56M LIRF-LMML

Flight info

Callsign RYR56M
Flight time 1h 3m
Altitude 35000
Route KONUT DCT ROTUN DCT LURON DCT MARON DCT EKOLA L12 GZO
Aircraft B738/M-SDE3FGILRWY/SB1

Departure

Time 2026-05-04 08:47
Airport Rome–Fiumicino Leonardo da Vinci International Airport (LIRF)

Arrival

Time 2026-05-04 09:51
Airport Malta International Airport (LMML)
Time Latitude Longitude Altitude Speed Heading
2026-05-04 08:24 41.80250 12.26268 22 ft 0 kts 204°
2026-05-04 08:43 41.80252 12.26269 22 ft 1 kts 204°
2026-05-04 08:43 41.80265 12.26277 22 ft 3 kts 204°
2026-05-04 08:43 41.80273 12.26282 22 ft 0 kts 204°
2026-05-04 08:43 41.80260 12.26332 22 ft 17 kts 54°
2026-05-04 08:44 41.80400 12.26368 22 ft 24 kts 21°
2026-05-04 08:44 41.80473 12.26561 22 ft 25 kts 71°
2026-05-04 08:46 41.80940 12.26870 22 ft 0 kts 253°
2026-05-04 08:46 41.80940 12.26869 22 ft 0 kts 253°
2026-05-04 08:46 41.80915 12.26771 22 ft 32 kts 250°
2026-05-04 08:47 41.80764 12.26222 22 ft 93 kts 249°
2026-05-04 08:47 41.80469 12.25149 24 ft 146 kts 250°
2026-05-04 08:47 41.80115 12.23780 484 ft 156 kts 252°
2026-05-04 08:47 41.79809 12.22396 1157 ft 154 kts 252°
2026-05-04 08:48 41.79418 12.21036 1724 ft 160 kts 240°
2026-05-04 08:48 41.78672 12.19820 2100 ft 179 kts 223°
2026-05-04 08:48 41.77990 12.19082 2298 ft 194 kts 216°
2026-05-04 08:48 41.76842 12.17987 2770 ft 206 kts 216°
2026-05-04 08:49 41.75693 12.16862 3548 ft 204 kts 216°
2026-05-04 08:50 41.67135 12.08841 7248 ft 269 kts 210°
2026-05-04 08:50 41.65532 12.07504 8024 ft 274 kts 212°
2026-05-04 08:51 41.63933 12.06077 8843 ft 278 kts 213°
2026-05-04 08:51 41.62325 12.04613 9645 ft 282 kts 214°
2026-05-04 08:51 41.60688 12.03138 10452 ft 286 kts 207°
2026-05-04 08:51 41.58785 12.02263 11129 ft 294 kts 191°
2026-05-04 08:52 41.56734 12.01954 11901 ft 300 kts 184°
2026-05-04 08:52 41.54641 12.01836 12708 ft 304 kts 181°
2026-05-04 08:52 41.52510 12.01809 13525 ft 308 kts 181°
2026-05-04 08:52 41.50350 12.01797 14329 ft 312 kts 181°
2026-05-04 08:53 41.48162 12.01786 15128 ft 317 kts 181°
2026-05-04 08:54 41.31982 12.01728 20254 ft 349 kts 179°
2026-05-04 08:55 41.29555 12.02184 20906 ft 356 kts 168°
2026-05-04 08:55 41.27192 12.03258 21539 ft 362 kts 158°
2026-05-04 08:55 41.24903 12.04707 22166 ft 367 kts 154°
2026-05-04 08:55 41.22633 12.06314 22762 ft 373 kts 153°
2026-05-04 08:57 41.06046 12.18149 26740 ft 397 kts 154°
2026-05-04 09:01 40.68950 12.38560 32943 ft 426 kts 165°
2026-05-04 09:01 40.66107 12.39719 33299 ft 428 kts 165°
2026-05-04 09:01 40.63254 12.40882 33640 ft 430 kts 165°
2026-05-04 09:01 40.60392 12.42048 33998 ft 431 kts 165°
2026-05-04 09:02 40.57524 12.43215 34323 ft 433 kts 165°
2026-05-04 09:02 40.54638 12.44394 34602 ft 435 kts 165°
2026-05-04 09:02 40.51739 12.45583 34896 ft 437 kts 165°
2026-05-04 09:02 40.48831 12.46773 35163 ft 440 kts 165°
2026-05-04 09:03 40.45903 12.47969 35441 ft 442 kts 166°
2026-05-04 09:03 40.42952 12.49173 35697 ft 444 kts 166°
2026-05-04 09:03 40.39998 12.50376 35956 ft 446 kts 166°
2026-05-04 09:03 40.37029 12.51584 36193 ft 448 kts 166°
2026-05-04 09:04 40.34034 12.52801 36205 ft 452 kts 166°
2026-05-04 09:04 40.28038 12.55233 36212 ft 449 kts 166°
2026-05-04 09:05 40.22104 12.57636 36212 ft 445 kts 166°
2026-05-04 09:05 40.16179 12.60030 36211 ft 446 kts 166°
2026-05-04 09:06 40.10246 12.62423 36211 ft 446 kts 166°
2026-05-04 09:08 39.86495 12.71958 36209 ft 447 kts 166°
2026-05-04 09:08 39.80545 12.74336 36209 ft 447 kts 166°
2026-05-04 09:09 39.74580 12.76716 36208 ft 448 kts 166°
2026-05-04 09:09 39.68517 12.79130 36207 ft 449 kts 166°
2026-05-04 09:10 39.62507 12.81519 36208 ft 449 kts 166°
2026-05-04 09:10 39.57496 12.83508 36208 ft 449 kts 166°
2026-05-04 09:11 39.51518 12.85876 36207 ft 449 kts 166°
2026-05-04 09:11 39.45530 12.88244 36207 ft 450 kts 166°
2026-05-04 09:12 39.39529 12.90613 36208 ft 451 kts 166°
2026-05-04 09:14 39.15509 13.00057 36207 ft 452 kts 166°
2026-05-04 09:14 39.09475 13.02424 36206 ft 452 kts 166°
2026-05-04 09:15 39.03464 13.04771 36205 ft 452 kts 166°
2026-05-04 09:15 38.97455 13.07111 36205 ft 452 kts 166°
2026-05-04 09:17 38.69399 13.16844 36203 ft 475 kts 172°
2026-05-04 09:18 38.62975 13.18848 36203 ft 475 kts 172°
2026-05-04 09:18 38.56559 13.20854 36202 ft 476 kts 172°
2026-05-04 09:19 38.50114 13.22876 36202 ft 477 kts 172°
2026-05-04 09:19 38.43678 13.24898 36201 ft 476 kts 172°
2026-05-04 09:20 38.37232 13.26918 36201 ft 477 kts 172°
2026-05-04 09:20 38.30785 13.28934 36200 ft 476 kts 172°
2026-05-04 09:21 38.24382 13.30931 36199 ft 469 kts 172°
2026-05-04 09:21 38.18093 13.32890 36201 ft 463 kts 172°
2026-05-04 09:22 38.14957 13.33866 35962 ft 462 kts 172°
2026-05-04 09:22 38.11849 13.34831 35482 ft 459 kts 172°
2026-05-04 09:22 38.08743 13.35795 34961 ft 458 kts 172°
2026-05-04 09:22 38.05652 13.36754 34506 ft 456 kts 171°
2026-05-04 09:23 38.02571 13.37709 34059 ft 453 kts 171°
2026-05-04 09:23 37.99514 13.38655 33620 ft 451 kts 171°
2026-05-04 09:23 37.96480 13.39594 33189 ft 448 kts 171°
2026-05-04 09:23 37.93455 13.40529 32762 ft 446 kts 171°
2026-05-04 09:25 37.72759 13.46905 29444 ft 429 kts 171°
2026-05-04 09:25 37.69859 13.47796 28969 ft 428 kts 171°
2026-05-04 09:26 37.67005 13.48672 28501 ft 427 kts 170°
2026-05-04 09:26 37.64123 13.49555 28026 ft 426 kts 170°
2026-05-04 09:26 37.61245 13.50437 27550 ft 425 kts 170°
2026-05-04 09:26 37.58378 13.51315 27074 ft 423 kts 170°
2026-05-04 09:27 37.55524 13.52188 26600 ft 422 kts 170°
2026-05-04 09:27 37.52679 13.53058 26123 ft 420 kts 170°
2026-05-04 09:27 37.49846 13.53923 25648 ft 418 kts 170°
2026-05-04 09:27 37.47024 13.54784 25172 ft 416 kts 170°
2026-05-04 09:28 37.44216 13.55641 24697 ft 414 kts 169°
2026-05-04 09:28 37.41418 13.56498 24221 ft 412 kts 169°
2026-05-04 09:28 37.38634 13.57348 23745 ft 410 kts 169°
2026-05-04 09:28 37.35871 13.58190 23271 ft 408 kts 169°
2026-05-04 09:29 37.33110 13.59030 22794 ft 407 kts 169°
2026-05-04 09:29 37.30373 13.59861 22320 ft 405 kts 169°
2026-05-04 09:29 37.27652 13.60685 21844 ft 402 kts 169°
2026-05-04 09:29 37.24928 13.61510 21368 ft 400 kts 169°
2026-05-04 09:30 37.22227 13.62328 20892 ft 398 kts 169°
2026-05-04 09:30 37.19537 13.63142 20416 ft 396 kts 169°
2026-05-04 09:30 37.16866 13.63950 19940 ft 394 kts 169°
2026-05-04 09:30 37.14175 13.64760 19458 ft 392 kts 169°
2026-05-04 09:31 37.11592 13.65684 18989 ft 391 kts 164°
2026-05-04 09:31 37.09041 13.66884 18513 ft 390 kts 160°
2026-05-04 09:31 37.06544 13.68187 18039 ft 389 kts 159°
2026-05-04 09:31 37.04058 13.69498 17563 ft 387 kts 159°
2026-05-04 09:32 37.01581 13.70795 17087 ft 385 kts 159°
2026-05-04 09:32 36.99115 13.72079 16611 ft 383 kts 159°
2026-05-04 09:34 36.82290 13.80730 13775 ft 357 kts 159°
2026-05-04 09:34 36.80048 13.81882 13433 ft 353 kts 159°
2026-05-04 09:34 36.77750 13.83069 13074 ft 349 kts 159°
2026-05-04 09:34 36.75515 13.84219 12724 ft 346 kts 159°
2026-05-04 09:35 36.73303 13.85353 12373 ft 343 kts 159°
2026-05-04 09:35 36.71100 13.86480 12022 ft 340 kts 158°
2026-05-04 09:35 36.68923 13.87590 11672 ft 337 kts 158°
2026-05-04 09:35 36.66759 13.88692 11321 ft 335 kts 158°
2026-05-04 09:37 36.52342 13.96011 9895 ft 292 kts 158°
2026-05-04 09:37 36.50470 13.96960 9687 ft 291 kts 158°
2026-05-04 09:38 36.48596 13.97907 9432 ft 289 kts 159°
2026-05-04 09:38 36.46719 13.98856 9189 ft 290 kts 158°
2026-05-04 09:38 36.44832 13.99809 8939 ft 293 kts 158°
2026-05-04 09:38 36.42945 14.00762 8691 ft 294 kts 158°
2026-05-04 09:39 36.41078 14.01704 8443 ft 292 kts 158°
2026-05-04 09:39 36.39756 14.02371 8267 ft 290 kts 158°
2026-05-04 09:39 36.37845 14.03334 8010 ft 288 kts 158°
2026-05-04 09:39 36.35934 14.04295 7751 ft 287 kts 158°
2026-05-04 09:40 36.34077 14.05231 7499 ft 286 kts 158°
2026-05-04 09:40 36.32226 14.06173 7247 ft 284 kts 158°
2026-05-04 09:40 36.30407 14.07095 6998 ft 283 kts 158°
2026-05-04 09:40 36.28578 14.08019 6744 ft 281 kts 158°
2026-05-04 09:41 36.26776 14.08929 6496 ft 280 kts 158°
2026-05-04 09:42 36.14402 14.15144 4694 ft 265 kts 159°
2026-05-04 09:43 36.12724 14.15984 4624 ft 253 kts 159°
2026-05-04 09:43 36.11136 14.16779 4578 ft 239 kts 159°
2026-05-04 09:43 36.09626 14.17535 4355 ft 230 kts 159°
2026-05-04 09:43 36.08170 14.18263 4005 ft 222 kts 159°
2026-05-04 09:44 36.06773 14.18961 3702 ft 213 kts 159°
2026-05-04 09:44 36.05424 14.19635 3462 ft 207 kts 159°
2026-05-04 09:44 36.04164 14.20471 3233 ft 206 kts 144°
2026-05-04 09:46 35.99331 14.30872 2987 ft 190 kts 137°
2026-05-04 09:46 35.98401 14.32021 2994 ft 184 kts 137°
2026-05-04 09:46 35.97506 14.33131 3018 ft 181 kts 137°
2026-05-04 09:47 35.96620 14.34232 3014 ft 181 kts 137°
2026-05-04 09:47 35.95737 14.35329 2984 ft 178 kts 137°
2026-05-04 09:49 35.90289 14.42105 1592 ft 147 kts 137°
2026-05-04 09:49 35.89563 14.43008 1399 ft 149 kts 137°
2026-05-04 09:49 35.88817 14.43934 1202 ft 154 kts 137°
2026-05-04 09:51 35.84683 14.49058 308 ft 61 kts 133°
2026-05-04 09:51 35.84452 14.49411 308 ft 34 kts 95°
2026-05-04 09:51 35.84459 14.49544 308 ft 2 kts 70°
2026-05-04 09:51 35.84459 14.49546 308 ft 0 kts 70°
2026-05-04 09:52 35.84463 14.49558 308 ft 5 kts 69°
2026-05-04 09:52 35.84484 14.49578 308 ft 1 kts 12°
2026-05-04 09:52 35.84501 14.49573 308 ft 7 kts 344°
2026-05-04 09:53 35.84567 14.49533 308 ft 14 kts
2026-05-04 09:53 35.84651 14.49578 308 ft 10 kts 346°
2026-05-04 09:53 35.84707 14.49547 308 ft 9 kts 317°
2026-05-04 09:53 35.84752 14.49492 308 ft 8 kts 315°
2026-05-04 09:54 35.84796 14.49459 308 ft 7 kts 352°
2026-05-04 09:54 35.84833 14.49456 308 ft 6 kts 358°
2026-05-04 09:54 35.84858 14.49455 308 ft 0 kts